Regional Weather Roundup
Issued by NWS

Home | Current Version | Previous Version | Graphics & Text | Print | Product List | Glossary On
Versions: 1 2 3 4 5 6 7 8 9 10 11 12 13 14 15 16 17 18 19 20 21 22 23 24 25 26 27 28 29 30 31 32 33 34 35 36 37 38 39 40 41 42 43 44 45 46 47 48 49 50
000
ASUS43 KFSD 261902
RWRSD

WEATHER ROUNDUP FOR SOUTH DAKOTA
NATIONAL WEATHER SERVICE SIOUX FALLS SD
100 PM CST WED NOV 26 2014

NOTE: "FAIR" INDICATES FEW OR NO CLOUDS BELOW 12,000 FEET WITH NO
SIGNIFICANT WEATHER AND/OR OBSTRUCTIONS TO VISIBILITY.


SDZ001>005-009-010-012>017-262000-
NORTHWEST AND NORTH CENTRAL SOUTH DAKOTA

CITY           SKY/WX    TMP DP  RH WIND       PRES   REMARKS
BUFFALO          N/A     29  22  75 N12       30.16S WCI  19
FAITH            N/A     24  20  84 S13       30.25F WCI  12
MOBRIDGE       LGT SNOW  14   7  73 N5        30.32F WCI   6
$$

SDZ012>016-024>037-041>051-057-063-072>074-262000-
SOUTHWEST AND SOUTH CENTRAL SOUTH DAKOTA

CITY           SKY/WX    TMP DP  RH WIND       PRES   REMARKS
RAPID CTY ARPT CLOUDY    29  23  78 S7        30.23F WCI  22
PIERRE         PTSUNNY   21  13  71 CALM      30.32F
CUSTER         CLOUDY    27  16  63 W5        30.11F WCI  22
PHILIP         CLOUDY    27  19  72 SW5       30.30S WCI  22
PINE RIDGE     CLOUDY    28  21  75 CALM      30.24F
WINNER         MOCLDY    24  14  65 N14       30.32S WCI  12
$$

SDZ004>011-016>023-039-040-262000-
NORTHEAST SOUTH DAKOTA

CITY           SKY/WX    TMP DP  RH WIND       PRES   REMARKS
ABERDEEN       PTSUNNY    9  -2  61 N17       30.38R WCI  -9
WATERTOWN      PTSUNNY   11   5  77 N17       30.26R WCI  -6
SISSETON         N/A     10   3  73 N21       30.34R WCI  -9
$$

SDZ017-020-022-023-036>040-048>070-262000-
SOUTHEAST SOUTH DAKOTA

CITY           SKY/WX    TMP DP  RH WIND       PRES   REMARKS
SIOUX FALLS    MOSUNNY   21  15  78 N17       30.23R WCI   7
HURON          SUNNY     12   4  70 N13       30.36R WCI  -3
MITCHELL       PTSUNNY   15   9  76 NW17      30.34R WCI  -1
YANKTON        CLOUDY    19  14  79 NW18G26   30.28R WCI   4
$$

ABBREVIATIONS USED IN REMARKS
   TC - TEMPERATURE IN CELSIUS
  WCI - WIND CHILL INDEX
   HX - HEAT INDEX
  VSB - VISIBILITY




USA.gov is the U.S. government's official web portal to all federal, state and local government web resources and services.